Regional Weather Roundup
Issued by NWS Upton, NY

Current Version | Previous Version | Graphics & Text | Print | Product List | Glossary Off
Versions: 1 2 3 4 5 6 7 8 9 10 11 12 13 14 15 16 17 18 19 20 21 22 23 24 25 26 27
000 ASUS41 KOKX 301005 RWROKX REGIONAL WEATHER ROUNDUP NATIONAL WEATHER SERVICE NEW YORK NY 600 AM EDT SAT APR 30 2016 NOTE: "FAIR" INDICATES FEW OR NO CLOUDS BELOW 12,000 FEET WITH NO SIGNIFICANT WEATHER AND/OR OBSTRUCTIONS TO VISIBILITY. NYZ071-072-176-178-NJZ106-104-301100- NEW YORK CITY METRO AREA CITY SKY/WX TMP DP RH WIND PRES REMARKS CENTRAL PARK CLOUDY 47 37 68 NE5 30.19F LAGUARDIA APRT MOCLDY 48 39 71 NE8 30.17S KENNEDY INTL CLOUDY 47 41 80 NE8 30.18F NEWARK/LIBERTY CLOUDY 44 41 89 N7 30.17S BRNX BOT. GARD N/A 45 37 76 NW2 30.19S TETERBORO CLOUDY 47 38 71 NE5 30.17S $$ NYZ177-179-078>081-301100- LONG ISLAND NEW YORK CITY SKY/WX TMP DP RH WIND PRES REMARKS FARMINGDALE CLOUDY 45 39 79 NE5 30.18R ISLIP CLOUDY 45 38 76 NE5 30.18R SHIRLEY CLOUDY 45 39 79 CALM 30.19R RIVERHEAD N/A 43 39 87 CALM 30.19R WESTHAMPTON CLOUDY 43 41 93 CALM 30.20R EAST HAMPTON CLOUDY 39 38 95 CALM 30.17R MONTAUK POINT N/A 42 39 89 CALM 30.20R $$ NYZ052-065-067-301100- HUDSON VALLEY CITY SKY/WX TMP DP RH WIND PRES REMARKS WHITE PLAINS MOCLDY 44 40 85 N6 30.17R NEWBURGH MOCLDY 43 43 100 CALM 30.18R MONTGOMERY CLOUDY 44 41 89 N3 30.17F POUGHKEEPSIE CLOUDY 46 42 86 CALM 30.19R ALBANY CLOUDY 46 39 76 CALM 30.20R $$ NJZ001-105-106-008-010-013-015-019>022-104-301100- NEW JERSEY CITY SKY/WX TMP DP RH WIND PRES REMARKS NEWARK/LIBERTY CLOUDY 44 41 89 N7 30.17S TETERBORO CLOUDY 47 38 71 NE5 30.17S CALDWELL CLOUDY 46 42 86 CALM 30.18S MORRISTOWN CLOUDY 45 41 87 N3 30.18R SOMERVILLE CLOUDY 47 42 83 CALM 30.17R SUSSEX CLOUDY 44 41 89 CALM 30.18R ANDOVER N/A 43 40 89 NE5 30.17R TRENTON CLOUDY 46 40 79 N3 30.17R MILLVILLE CLOUDY 47 44 90 NE7 30.16R ATLANTIC CITY CLOUDY 47 45 93 N6 30.16R WRIGHTSTOWN CLOUDY 46 40 81 NE6 30.15R TOMS RIVER CLOUDY 46 37 71 NE6 30.17R BELMAR CLOUDY 46 38 73 NE9 30.18R $$ PAZ047>061-062-071-301100- EASTERN PENNSYLVANIA CITY SKY/WX TMP DP RH WIND PRES REMARKS PHILADELPHIA CLOUDY 49 38 65 NE6 30.20R ALLENTOWN CLOUDY 46 38 73 CALM 30.19R SCRANTON CLOUDY 41 38 89 CALM 30.17R $$ CTZ002-004>006-009-010-012-RIZ004-006-007-MAZ004-011-015-301100- SOUTHERN NEW ENGLAND IN CT CITY SKY/WX TMP DP RH WIND PRES REMARKS BRADLEY INTL MOCLDY 43 38 82 W6 30.17R HARTFORD CLOUDY 45 38 76 SW3 30.19R DANBURY CLOUDY 43 41 93 SW3 30.20R WTRBRY/OXFORD N/A 41 37 87 CALM 30.21R BRIDGEPORT CLOUDY 46 40 79 NW3 30.20R MERIDEN CLOUDY 43 40 89 CALM 30.20R NEW HAVEN CLOUDY 44 42 93 CALM 30.20R CHESTER CLOUDY 43 41 93 CALM 30.18R GROTON MOCLDY 42 42 100 CALM 30.18R WILLIMANTIC PTCLDY 42 34 73 CALM 30.17R IN RI CITY SKY/WX TMP DP RH WIND PRES REMARKS PROVIDENCE PTCLDY 40 33 76 CALM 30.18R BLOCK ISLAND MOCLDY 41 38 89 NW5 30.19R WESTERLY MOCLDY 40 35 83 CALM 30.19R IN MA CITY SKY/WX TMP DP RH WIND PRES REMARKS BOSTON CLEAR 42 35 76 S9 30.18R WORCESTER CLEAR 38 30 73 SW7 30.14R WCI 33 WESTFIELD CLOUDY 44 38 79 S8 30.17R PROVINCETOWN CLEAR 29 26 89 E6 30.18F WCI 23 NANTUCKET CLEAR 39 33 79 NE5 30.16S $$ ANZ330-335-338-340-345-350-353-355-301100- COASTAL MARINE OBSERVATIONS STATION/POSITION TIME SKY/WX TEMP WIND PRES VSBY WAVE AIR SEA DIR/SP/G HT/PER (UTC) (F) (DEG/KT/KT) (MB) (MI) (FT/S) NY HARB ENTRANCE 0850 47 51 60/ 12/ 14 1020.8 5/ 8 20S FIRE ISLAND 0850 46 48 40/ 12/ 14 1021.0 6/ 8 GREAT SOUTH BAY 0915 46 56 10/ 6/ 10 N/A 23 SSW MONTAUK P 0950 45 47 20/ 12/ 14 1021.4 5/ 7 15 E BARNEGAT LI 0922 50 N/A 6/10 HUDSON CANYON 0850 47 47 1019.5 6/ 8 KINGS POINT 0900 46 53 1021.5 EXECUTION ROCKS NOT AVBL CENTRAL LI SOUND NOT AVBL EASTERN LI SOUND 0900 45 47 310/ 4/ 6 N/A ROBBINS REEF 0912 47 60/ 8/ 10 1020.8 $$ >>>>>>>>>>>>>>>>>>>>>>>>>>>> KEY <<<<<<<<<<<<<<<<<<<<<<<<<<< > < > SKY/WX - SKY CONDITION/PRESENT WEATHER < > TMP - TEMPERATURE IN FAHRENHEIT < > DP - DEWPOINT IN FAHRENHEIT < > RH - RELATIVE HUMIDITY IN PERCENT < > WIND - DIRECTION AND SPEED IN MPH < > PRES - MEAN SEA LEVEL PRESSURE IN INCHES OF HG < > WCI - WIND CHILL INDEX < > VSB - VISIBILITY IN MILES < > HX - HEAT INDEX < > TC - TEMPERATURE IN CELSIUS < > VRB - VARIABLE WIND DIRECTION < > < >>>>>>>>>>>>>>>>>>>>>>>>>>>> KEY <<<<<<<<<<<<<<<<<<<<<<<<<<<

USA.gov is the U.S. government's official web portal to all federal, state and local government web resources and services.